Weather reports worldwide

Advertisment
Amsterdam Airport, Netherlands (6240): temperature & dewpoint: 16.01.2020 00:00:00 - 22.01.2020 00:00:00 (CET)Amsterdam Airport, Netherlands (6240): temperature 5cm: 16.01.2020 00:00:00 - 22.01.2020 00:00:00 (CET)Amsterdam Airport, Netherlands (6240): wind speed & gusts: 16.01.2020 00:00:00 - 22.01.2020 00:00:00 (CET)Amsterdam Airport, Netherlands (6240): wind direction: 16.01.2020 00:00:00 - 22.01.2020 00:00:00 (CET)Amsterdam Airport, Netherlands (6240): reduced air pressure: 16.01.2020 00:00:00 - 22.01.2020 00:00:00 (CET)Amsterdam Airport, Netherlands (6240): visibility: 16.01.2020 00:00:00 - 22.01.2020 00:00:00 (CET)Amsterdam Airport, Netherlands (6240): precipitation: 16.01.2020 00:00:00 - 22.01.2020 00:00:00 (CET)
Date & Time tt [°C] td [°C] tt 5cm [°C] ff [km/h] ff [kn] fx [km/h] fx [kn] dd ppp [hPa] vv [km] rr [mm]
22.01.2020 00:00:00 3,4 3,1 3,3 13 7 18 10 SSW 1038,7 2,4 0,0
21.01.2020 23:00:00 3,4 3,2 3,2 15 8 25 14 SW 1038,7 2,4 0,0
21.01.2020 22:00:00 3,3 3,1 3,2 16 9 25 14 SSW 1038,7 2,0 0,0
21.01.2020 21:00:00 3,0 2,8 2,9 13 7 18 10 SSW 1039,6 1,8 0,0
21.01.2020 20:00:00 3,1 2,9 3,0 13 7 22 12 SSW 1039,5 1,8 0,0
21.01.2020 19:00:00 3,3 3,1 3,2 18 10 22 12 SSW 1039,2 3,0 0,0
21.01.2020 18:00:00 3,2 3,0 3,2 15 8 22 12 S 1039,7 0,6 0,0
21.01.2020 17:00:00 3,4 3,2 3,4 13 7 14 8 S 1040,2 0,7 0,0
21.01.2020 16:00:00 3,7 3,4 3,7 13 7 22 12 S 1040,4 1,5 0,0
21.01.2020 15:00:00 3,8 3,6 4,0 13 7 22 12 SSW 1040,6 1,5 0,0
21.01.2020 14:00:00 4,0 3,4 4,0 11 6 18 10 SW 1041,0 2,5 0,0
21.01.2020 13:00:00 2,8 2,5 3,3 11 6 14 8 S 1041,7 2,0 0,0
21.01.2020 12:00:00 2,1 1,9 2,4 11 6 14 8 SSW 1042,5 1,3 0,0
21.01.2020 11:00:00 1,2 1,0 1,1 8 4 14 8 SW 1042,7 0,4 0,0
21.01.2020 10:00:00 0,0 -0,2 -0,2 16 9 22 12 S 1042,3 0,6 0,0
21.01.2020 09:00:00 0,4 -0,1 -0,6 13 7 14 8 S 1042,1 5 0,0
21.01.2020 08:00:00 -0,3 -0,5 -1,5 5 3 14 8 S 1042,0 5 0,0
21.01.2020 07:00:00 0,5 0,3 -0,2 13 7 14 8 S 1042,2 3,5 0,0
21.01.2020 06:00:00 1,4 1,3 0,6 13 7 18 10 SSW 1042,4 3,2 0,0
21.01.2020 05:00:00 2,3 2,2 2,0 15 8 22 12 SSW 1042,5 0,5 0,0
21.01.2020 04:00:00 1,4 1,2 1,2 11 6 22 12 S 1043,1 0,3 0,0
21.01.2020 03:00:00 1,4 1,3 0,9 5 3 11 6 S 1043,7 0,4 0,0
21.01.2020 02:00:00 2,0 1,8 1,8 15 8 22 12 S 1043,9 0,4 0,0
21.01.2020 01:00:00 2,3 2,1 2,0 11 6 14 8 S 1044,2 0,4 0,0
21.01.2020 00:00:00 2,7 2,5 2,2 11 6 14 8 S 1044,6 0,4 0,0
20.01.2020 23:00:00 2,3 2,0 0,3 11 6 14 8 S 1044,8 6 0,0
20.01.2020 22:00:00 2,3 1,8 0,1 11 6 14 8 SSE 1045,1 10 0,0
20.01.2020 21:00:00 3,6 2,1 0,1 9 5 11 6 S 1045,3 10 0,0
20.01.2020 20:00:00 3,4 1,4 1,4 11 6 14 8 SSW 1045,3 10 0,0
20.01.2020 19:00:00 6,0 3,4 5,3 11 6 18 10 SW 1045,5 10 0,0
20.01.2020 18:00:00 6,1 3,1 5,2 13 7 18 10 SW 1045,7 10 0,0
20.01.2020 17:00:00 7,0 2,9 6,0 11 6 18 10 WSW 1045,8 10 0,0
20.01.2020 16:00:00 7,2 2,9 6,5 15 8 22 12 WSW 1046,1 10 0,0
20.01.2020 15:00:00 7,9 3,7 7,8 13 7 25 14 WSW 1046,3 10 0,0
20.01.2020 14:00:00 7,7 4,0 7,4 15 8 22 12 SW 1047,0 10 0,0
20.01.2020 13:00:00 7,7 4,2 7,8 15 8 22 12 SW 1047,4 10 0,0
20.01.2020 12:00:00 7,2 4,9 7,4 11 6 18 10 SSW 1047,6 10 0,0
20.01.2020 11:00:00 6,5 4,9 5,8 15 8 18 10 SW 1047,7 10 0,0
20.01.2020 10:00:00 4,9 4,2 4,3 8 4 14 8 SSW 1047,7 10 0,0
20.01.2020 09:00:00 2,9 2,6 1,7 8 4 11 6 S 1047,6 10 0,0
20.01.2020 08:00:00 2,7 2,2 0,6 2 1 11 6 - 1047,2 10 0,0
20.01.2020 07:00:00 1,7 1,4 0,4 8 4 11 6 SSW 1047,2 10 0,0
20.01.2020 06:00:00 1,3 1,2 -0,5 4 2 11 6 - 1047,0 9 0,0
20.01.2020 05:00:00 1,1 0,9 -2,6 5 3 7 4 S 1047,2 6 0,0
20.01.2020 04:00:00 -0,7 -1,1 -4,0 5 3 11 6 SSW 1047,3 6 0,0
20.01.2020 03:00:00 0,5 0,3 -3,6 5 3 7 4 SSW 1047,5 8 0,0
20.01.2020 02:00:00 1,0 0,9 -2,6 5 3 7 4 SW 1047,2 9 0,0
20.01.2020 01:00:00 0,5 0,2 -1,8 4 2 11 6 - 1047,0 9 0,0
20.01.2020 00:00:00 2,4 2,3 -1,3 8 4 11 6 S 1047,1 10 0,0
19.01.2020 23:00:00 1,5 1,1 -1,9 9 5 14 8 NW 1046,8 10 0,0
19.01.2020 22:00:00 2,6 2,0 -1,0 9 5 11 6 NNW 1046,6 10 0,0
19.01.2020 21:00:00 3,5 2,8 -0,6 8 4 11 6 NW 1046,1 10 0,0
19.01.2020 20:00:00 3,7 2,7 1,7 11 6 14 8 NNW 1045,8 10 0,0
19.01.2020 19:00:00 3,9 2,8 2,0 9 5 14 8 NW 1045,0 10 0,0
19.01.2020 18:00:00 4,3 2,3 0,6 8 4 18 10 NNW 1044,2 10 0,0
19.01.2020 17:00:00 6,3 2,8 4,9 15 8 25 14 N 1043,6 10 0,0
19.01.2020 16:00:00 7,5 3,3 6,7 13 7 29 16 N 1042,5 10 0,0
19.01.2020 15:00:00 8,2 2,2 7,9 21 11 36 19 N 1041,7 10 0,0
19.01.2020 14:00:00 8,2 2,5 7,5 22 12 36 19 N 1041,3 10 0,0
19.01.2020 13:00:00 8,3 3,4 7,0 18 10 32 18 N 1041,0 10 0,0
19.01.2020 12:00:00 7,5 2,8 7,4 11 6 18 10 N 1040,4 10 0,0
19.01.2020 11:00:00 6,5 2,6 5,8 11 6 22 12 N 1039,7 10 0,0
19.01.2020 10:00:00 4,8 1,6 3,3 13 7 22 12 N 1038,8 10 0,0
19.01.2020 09:00:00 3,7 1,3 1,8 11 6 22 12 NNW 1037,4 10 0,0
19.01.2020 08:00:00 3,6 1,3 1,9 11 6 18 10 NNW 1035,9 10 0,0
19.01.2020 07:00:00 3,6 1,1 2,2 13 7 25 14 NNW 1034,7 10 0,0
19.01.2020 06:00:00 4,0 2,0 2,1 11 6 22 12 NW 1033,8 10 0,0
19.01.2020 05:00:00 4,4 2,0 2,3 13 7 22 12 NW 1033,6 10 0,0
19.01.2020 04:00:00 4,1 1,7 2,8 18 10 32 18 NNW 1033,0 10 0,0
19.01.2020 03:00:00 3,4 1,0 1,1 11 6 18 10 NNW 1032,4 10 0,0
19.01.2020 02:00:00 2,4 0,8 0,6 11 6 14 8 NW 1031,7 10 0,1
19.01.2020 01:00:00 3,3 0,5 1,9 11 6 25 14 NW 1031,0 10 0,0
19.01.2020 00:00:00 4,9 2,3 4,1 18 10 32 18 NW 1030,6 7 0,1
18.01.2020 23:00:00 3,3 0,9 1,7 13 7 25 14 WNW 1029,7 10 0,0
18.01.2020 22:00:00 4,9 2,4 3,1 13 7 18 10 WNW 1029,2 10 0,0
18.01.2020 21:00:00 4,1 1,6 2,1 13 7 18 10 WNW 1028,8 10 0,0
18.01.2020 20:00:00 3,4 1,1 1,4 9 5 36 19 WNW 1028,2 10 0,1
18.01.2020 19:00:00 4,2 1,7 2,4 13 7 18 10 WNW 1027,5 10 0,0
18.01.2020 18:00:00 4,7 2,5 2,5 11 6 18 10 WNW 1026,7 10 0,1
18.01.2020 17:00:00 4,1 2,5 3,5 9 5 18 10 W 1025,9 10 0,2
18.01.2020 16:00:00 3,6 1,8 2,9 9 5 54 29 W 1025,4 10 2,0
18.01.2020 15:00:00 6,7 2,7 5,6 18 10 47 25 NNW 1024,3 10 0,0
18.01.2020 14:00:00 6,5 2,6 6,3 28 15 47 25 W 1023,9 10 0,0
18.01.2020 13:00:00 7,0 3,0 6,8 31 17 40 21 W 1023,6 10 0,0
18.01.2020 12:00:00 6,9 3,3 7,1 28 15 43 23 W 1023,3 10 0,0
18.01.2020 11:00:00 6,8 3,3 6,4 22 12 32 18 W 1022,9 10 0,0
18.01.2020 10:00:00 5,9 3,1 4,8 15 8 22 12 WSW 1022,2 10 0,0
18.01.2020 09:00:00 5,1 3,2 3,7 11 6 32 18 SW 1021,3 10 0,7
18.01.2020 08:00:00 5,1 2,3 3,9 16 9 22 12 WSW 1020,4 10 0,0
18.01.2020 07:00:00 4,2 3,1 3,4 16 9 29 16 SW 1020,1 10 0,0
18.01.2020 06:00:00 4,6 3,2 3,6 22 12 36 19 SW 1019,6 10 0,7
18.01.2020 05:00:00 5,0 3,7 4,5 18 10 40 21 WSW 1019,4 10 1,0
18.01.2020 04:00:00 5,2 3,5 4,7 22 12 29 16 SSW 1019,3 10 0,0
18.01.2020 03:00:00 5,1 3,1 4,2 16 9 22 12 SW 1019,0 10 0,0
18.01.2020 02:00:00 5,0 3,3 3,8 18 10 36 19 SW 1018,7 10 0,0
18.01.2020 01:00:00 6,5 2,2 5,0 22 12 32 18 WSW 1018,1 10 0,0
18.01.2020 00:00:00 6,4 1,8 5,0 22 12 36 19 WSW 1017,7 10 0,0
17.01.2020 23:00:00 6,6 2,6 5,5 24 13 43 23 WSW 1017,3 10 0,0
17.01.2020 22:00:00 6,5 2,6 5,4 34 18 50 27 W 1016,5 10 0,0
17.01.2020 21:00:00 6,8 3,5 5,9 28 15 50 27 W 1015,9 10 0,2
17.01.2020 20:00:00 6,9 3,9 6,2 41 22 58 31 W 1015,0 10 0,0
17.01.2020 19:00:00 7,8 3,3 7,1 42 23 61 33 SW 1013,9 10 0,0
17.01.2020 18:00:00 8,5 5,2 7,8 35 19 50 27 SW 1013,1 10 0,0
17.01.2020 17:00:00 9,7 5,7 8,8 31 17 47 25 SW 1012,2 10 0,0
17.01.2020 16:00:00 9,8 6,5 8,9 26 14 40 21 SW 1012,0 10 0,0
17.01.2020 15:00:00 10,2 8,0 9,5 24 13 36 19 SW 1011,6 10 0,0
17.01.2020 14:00:00 9,5 8,7 9,0 22 12 32 18 SSW 1011,8 10 0,3
17.01.2020 13:00:00 9,1 8,5 8,9 22 12 32 18 SSW 1011,9 9 0,0
17.01.2020 12:00:00 9,0 8,1 8,7 18 10 25 14 S 1012,2 10 0,2
17.01.2020 11:00:00 9,1 7,7 8,7 21 11 29 16 S 1012,5 10 0,0
17.01.2020 10:00:00 8,8 7,5 8,2 16 9 32 18 SSW 1012,5 10 0,0
17.01.2020 09:00:00 8,6 7,1 8,2 28 15 43 23 SSW 1012,4 10 0,0
17.01.2020 08:00:00 8,5 5,4 8,0 24 13 36 19 S 1012,2 10 0,0
17.01.2020 07:00:00 8,6 5,3 8,0 26 14 36 19 S 1012,3 10 0,0
17.01.2020 06:00:00 8,6 5,1 7,9 24 13 36 19 SSE 1012,4 10 0,0
17.01.2020 05:00:00 8,4 5,0 7,2 24 13 32 18 S 1012,9 10 0,0
17.01.2020 04:00:00 8,6 5,1 7,9 24 13 36 19 S 1013,6 10 0,0
17.01.2020 03:00:00 8,0 5,1 7,0 24 13 32 18 SSE 1014,6 10 0,0
17.01.2020 02:00:00 8,8 5,6 8,0 24 13 36 19 SSE 1015,0 10 0,0
17.01.2020 01:00:00 8,7 5,6 7,5 28 15 40 21 SSE 1015,5 10 0,0
17.01.2020 00:00:00 8,4 5,7 7,3 24 13 40 21 SSE 1015,9 10 0,0
16.01.2020 23:00:00 9,0 5,9 7,9 35 19 50 27 SSE 1015,8 10 0,0
16.01.2020 22:00:00 9,2 6,0 8,1 31 17 47 25 SSE 1016,4 10 0,0
16.01.2020 21:00:00 9,3 6,0 8,1 29 16 43 23 SSE 1017,2 10 0,0
16.01.2020 20:00:00 9,4 6,0 8,3 29 16 43 23 SSE 1017,8 10 0,0
16.01.2020 19:00:00 9,2 6,2 8,0 29 16 40 21 SSE 1018,4 10 0,0
16.01.2020 18:00:00 8,8 6,2 7,7 28 15 36 19 SSE 1019,1 10 0,0
16.01.2020 17:00:00 8,9 6,2 7,7 22 12 32 18 SSE 1019,4 10 0,0
16.01.2020 16:00:00 9,2 6,4 8,6 22 12 36 19 SSE 1020,0 10 0,0
16.01.2020 15:00:00 9,4 6,2 9,4 26 14 36 19 S 1020,5 10 0,0
16.01.2020 14:00:00 8,9 5,9 9,2 22 12 32 18 SSE 1021,5 10 0,0
16.01.2020 13:00:00 8,8 5,6 9,2 22 12 32 18 SSE 1022,5 10 0,0
16.01.2020 12:00:00 7,7 5,2 7,9 22 12 29 16 S 1023,5 10 0,0
16.01.2020 11:00:00 6,3 4,8 6,1 16 9 25 14 SSE 1023,7 10 0,0
16.01.2020 10:00:00 4,7 4,1 3,9 18 10 25 14 S 1023,8 10 0,0
16.01.2020 09:00:00 3,8 3,3 2,9 15 8 22 12 S 1024,2 9 0,0
16.01.2020 08:00:00 4,2 3,6 3,3 16 9 22 12 S 1024,1 9 0,0
16.01.2020 07:00:00 4,3 3,8 3,5 18 10 25 14 S 1023,8 10 0,0
16.01.2020 06:00:00 4,6 4,1 3,7 18 10 25 14 SSW 1023,6 10 0,0
16.01.2020 05:00:00 4,9 4,2 3,9 18 10 29 16 SSW 1023,0 10 0,0
16.01.2020 04:00:00 5,7 4,8 4,6 18 10 29 16 SSW 1022,4 10 0,0
16.01.2020 03:00:00 5,9 5,0 5,0 21 11 29 16 SSW 1022,0 10 0,0
16.01.2020 02:00:00 5,6 4,7 4,7 18 10 25 14 SSW 1021,3 10 0,0
16.01.2020 01:00:00 5,5 4,6 4,5 16 9 25 14 SSW 1020,8 10 0,0
16.01.2020 00:00:00 5,9 4,8 4,9 18 10 25 14 SSW 1019,9 10 0,0

tt = temperature
td = dewpoint
tt 5cm = temperature 5cm
ff = wind speed
fx = gusts
dd = wind direction
ppp = reduced air pressure
vv = visibility
rr = precipitation

Next stations